小惑星2013 WK64

2013 WK64

English version
Home page
Updated on March 16, 2014

---------------------------------------------------------------------

・ プロフィール

・ 軌道要素

The following orbital elements are taken from MPEC 2014-D51:

Epoch 2013 Nov. 4.0 TT = JDT 2456600.5                  MPC
M 357.01470              (2000.0)            P               Q
n   0.04406684     Peri.  353.68515     -0.11568389     -0.47046101
a   7.9383111      Node    99.59768     +0.94573127     -0.32141619
e   0.6292933      Incl.   62.52641     +0.30366033     +0.82180172
P  22.4            H   15.7           G   0.15           U   5
From 25 observations 2013 Nov. 28-2014 Feb. 27, mean residual 0".23.

・ 光度変化

        H = 15.7  G = 0.15

---------------------------------------------------------------------

軌道要素はMPCのEphemerides and Orbital Elementsに掲載されたものです。
光度グラフはComet for Windowsで作成したものです。

---------------------------------------------------------------------

Copyright(C) Seiichi Yoshida (comet@aerith.net). All rights reserved.